EZY31FV EGCC-LPPT

Flight info

Callsign EZY31FV
Flight time 2h 23m
Altitude 34000
Route KUXEM P17 BEPHE DCT OSSEP DCT OXCUD DCT ELNIF DCT ZESPE DCT KLAKI DCT ANNET DCT EKVEB DCT KORUL DCT ASPOR DCT ABLEG DCT XAMAX
Aircraft A20N/M-SDE2E3FGHIRWXY/LB1

Departure

Time 2026-05-07 18:32
Airport Manchester Airport (EGCC)

Arrival

Time 2026-05-07 20:56
Airport Lisbon Humberto Delgado Airport (LPPT)
Time Latitude Longitude Altitude Speed Heading
2026-05-07 17:50 53.36780 -2.28911 222 ft 0 kts 134°
2026-05-07 18:10 53.36783 -2.28916 222 ft 2 kts 134°
2026-05-07 18:10 53.36794 -2.28935 223 ft 2 kts 133°
2026-05-07 18:10 53.36805 -2.28950 224 ft 2 kts 153°
2026-05-07 18:10 53.36819 -2.28960 224 ft 2 kts 167°
2026-05-07 18:11 53.36834 -2.28963 224 ft 2 kts 182°
2026-05-07 18:11 53.36844 -2.28961 224 ft 2 kts 193°
2026-05-07 18:11 53.36862 -2.28948 224 ft 2 kts 214°
2026-05-07 18:11 53.36869 -2.28939 224 ft 0 kts 224°
2026-05-07 18:12 53.36874 -2.28931 224 ft 0 kts 225°
2026-05-07 18:12 53.36874 -2.28932 224 ft 0 kts 225°
2026-05-07 18:14 53.36872 -2.28934 224 ft 1 kts 225°
2026-05-07 18:14 53.36863 -2.28951 224 ft 3 kts 225°
2026-05-07 18:15 53.36843 -2.28981 225 ft 4 kts 220°
2026-05-07 18:15 53.36806 -2.29020 224 ft 8 kts 202°
2026-05-07 18:15 53.36737 -2.29022 223 ft 8 kts 154°
2026-05-07 18:15 53.36694 -2.28967 222 ft 9 kts 144°
2026-05-07 18:16 53.36675 -2.28949 221 ft 0 kts 157°
2026-05-07 18:18 53.36670 -2.28945 221 ft 2 kts 157°
2026-05-07 18:18 53.36641 -2.28917 220 ft 6 kts 141°
2026-05-07 18:18 53.36613 -2.28826 218 ft 10 kts 117°
2026-05-07 18:18 53.36569 -2.28704 216 ft 13 kts 125°
2026-05-07 18:19 53.36498 -2.28582 214 ft 15 kts 137°
2026-05-07 18:19 53.36427 -2.28459 215 ft 14 kts 134°
2026-05-07 18:19 53.36361 -2.28353 217 ft 12 kts 135°
2026-05-07 18:19 53.36310 -2.28267 222 ft 8 kts 135°
2026-05-07 18:20 53.36282 -2.28221 225 ft 3 kts 135°
2026-05-07 18:20 53.36276 -2.28212 226 ft 0 kts 135°
2026-05-07 18:20 53.36270 -2.28202 226 ft 2 kts 135°
2026-05-07 18:20 53.36250 -2.28171 228 ft 5 kts 139°
2026-05-07 18:21 53.36211 -2.28115 231 ft 9 kts 140°
2026-05-07 18:21 53.36150 -2.28029 235 ft 13 kts 139°
2026-05-07 18:21 53.36081 -2.27912 237 ft 13 kts 132°
2026-05-07 18:21 53.36002 -2.27841 238 ft 12 kts 173°
2026-05-07 18:22 53.35914 -2.27850 238 ft 13 kts 188°
2026-05-07 18:22 53.35860 -2.27827 238 ft 12 kts 133°
2026-05-07 18:22 53.35791 -2.27708 241 ft 9 kts 127°
2026-05-07 18:22 53.35739 -2.27647 242 ft 9 kts 159°
2026-05-07 18:23 53.35682 -2.27606 243 ft 8 kts 148°
2026-05-07 18:23 53.35657 -2.27577 243 ft 0 kts 145°
2026-05-07 18:23 53.35656 -2.27577 243 ft 0 kts 145°
2026-05-07 18:23 53.35653 -2.27573 243 ft 1 kts 143°
2026-05-07 18:24 53.35645 -2.27563 243 ft 1 kts 141°
2026-05-07 18:24 53.35624 -2.27525 244 ft 7 kts 124°
2026-05-07 18:24 53.35632 -2.27429 246 ft 8 kts 49°
2026-05-07 18:24 53.35669 -2.27355 248 ft 7 kts 55°
2026-05-07 18:25 53.35697 -2.27295 250 ft 4 kts 50°
2026-05-07 18:25 53.35712 -2.27265 252 ft 3 kts 51°
2026-05-07 18:25 53.35731 -2.27226 254 ft 7 kts 52°
2026-05-07 18:25 53.35775 -2.27133 258 ft 13 kts 52°
2026-05-07 18:26 53.35824 -2.27021 263 ft 9 kts 59°
2026-05-07 18:26 53.35855 -2.26935 266 ft 7 kts 51°
2026-05-07 18:26 53.35889 -2.26859 267 ft 8 kts 54°
2026-05-07 18:26 53.35926 -2.26765 268 ft 11 kts 55°
2026-05-07 18:27 53.35980 -2.26651 268 ft 13 kts 50°
2026-05-07 18:27 53.36046 -2.26515 267 ft 16 kts 51°
2026-05-07 18:27 53.36118 -2.26366 265 ft 17 kts 52°
2026-05-07 18:27 53.36156 -2.26287 264 ft 10 kts 47°
2026-05-07 18:28 53.36243 -2.26153 260 ft 11 kts 52°
2026-05-07 18:28 53.36270 -2.26066 260 ft 5 kts 92°
2026-05-07 18:28 53.36270 -2.26061 260 ft 0 kts 95°
2026-05-07 18:29 53.36270 -2.26059 260 ft 0 kts 95°
2026-05-07 18:29 53.36268 -2.26024 260 ft 6 kts 95°
2026-05-07 18:29 53.36283 -2.25920 259 ft 10 kts 70°
2026-05-07 18:29 53.36273 -2.25800 260 ft 10 kts 116°
2026-05-07 18:30 53.36220 -2.25751 261 ft 8 kts 208°
2026-05-07 18:30 53.36203 -2.25778 261 ft 0 kts 230°
2026-05-07 18:31 53.36198 -2.25788 261 ft 5 kts 230°
2026-05-07 18:32 53.36052 -2.26097 264 ft 68 kts 231°
2026-05-07 18:32 53.35615 -2.27000 261 ft 129 kts 231°
2026-05-07 18:32 53.34943 -2.28395 373 ft 166 kts 231°
2026-05-07 18:32 53.34250 -2.29874 975 ft 165 kts 231°
2026-05-07 18:33 53.33551 -2.31407 1584 ft 170 kts 230°
2026-05-07 18:33 53.32808 -2.33030 1983 ft 184 kts 231°
2026-05-07 18:33 53.32247 -2.35073 2322 ft 207 kts 259°
2026-05-07 18:33 53.32257 -2.37583 2623 ft 231 kts 271°
2026-05-07 18:34 53.32375 -2.40344 3164 ft 244 kts 272°
2026-05-07 18:34 53.32491 -2.43227 3653 ft 259 kts 270°
2026-05-07 18:34 53.32281 -2.46218 4401 ft 261 kts 252°
2026-05-07 18:34 53.31724 -2.49052 5262 ft 261 kts 249°
2026-05-07 18:35 53.31120 -2.51915 6126 ft 262 kts 249°
2026-05-07 18:35 53.30549 -2.54745 6934 ft 265 kts 250°
2026-05-07 18:35 53.30193 -2.56575 7442 ft 267 kts 250°
2026-05-07 18:35 53.29594 -2.59509 8262 ft 268 kts 243°
2026-05-07 18:36 53.28657 -2.62130 9067 ft 268 kts 233°
2026-05-07 18:36 53.27477 -2.64558 9861 ft 270 kts 226°
2026-05-07 18:36 53.26150 -2.66762 10540 ft 276 kts 220°
2026-05-07 18:36 53.24632 -2.68826 10922 ft 292 kts 215°
2026-05-07 18:37 53.22905 -2.70827 11251 ft 310 kts 213°
2026-05-07 18:37 53.21100 -2.72877 11555 ft 327 kts 213°
2026-05-07 18:37 53.19171 -2.75074 11849 ft 343 kts 214°
2026-05-07 18:37 53.17173 -2.77362 12312 ft 353 kts 213°
2026-05-07 18:38 53.15146 -2.79685 12951 ft 357 kts 214°
2026-05-07 18:38 53.13090 -2.82046 13586 ft 361 kts 214°
2026-05-07 18:38 53.11031 -2.84410 14199 ft 365 kts 214°
2026-05-07 18:38 53.08838 -2.86556 14791 ft 370 kts 202°
2026-05-07 18:39 53.06350 -2.87552 15392 ft 374 kts 185°
2026-05-07 18:39 53.03748 -2.87312 15988 ft 379 kts 173°
2026-05-07 18:39 53.01155 -2.86599 16574 ft 383 kts 172°
2026-05-07 18:39 52.98524 -2.85852 17138 ft 386 kts 172°
2026-05-07 18:40 52.95881 -2.85109 17697 ft 389 kts 172°
2026-05-07 18:40 52.93196 -2.84367 18224 ft 393 kts 172°
2026-05-07 18:40 52.90509 -2.83633 18731 ft 396 kts 172°
2026-05-07 18:40 52.87765 -2.82889 18983 ft 398 kts 172°
2026-05-07 18:41 52.85059 -2.82158 18996 ft 397 kts 172°
2026-05-07 18:41 52.82335 -2.81424 18997 ft 397 kts 172°
2026-05-07 18:41 52.79628 -2.80697 18993 ft 397 kts 172°
2026-05-07 18:41 52.76899 -2.79964 18993 ft 398 kts 172°
2026-05-07 18:42 52.74162 -2.79230 18989 ft 398 kts 172°
2026-05-07 18:42 52.71440 -2.78500 18992 ft 398 kts 172°
2026-05-07 18:42 52.68684 -2.77764 19097 ft 404 kts 172°
2026-05-07 18:42 52.65914 -2.77024 19661 ft 405 kts 172°
2026-05-07 18:43 52.63135 -2.76396 20273 ft 405 kts 175°
2026-05-07 18:43 52.60340 -2.76081 20776 ft 407 kts 180°
2026-05-07 18:43 52.57510 -2.76096 21252 ft 410 kts 184°
2026-05-07 18:43 52.54651 -2.76338 21725 ft 413 kts 184°
2026-05-07 18:44 52.51793 -2.76591 22190 ft 415 kts 184°
2026-05-07 18:44 52.48901 -2.76846 22635 ft 418 kts 185°
2026-05-07 18:44 52.46001 -2.77100 23075 ft 421 kts 184°
2026-05-07 18:44 52.43102 -2.77353 23503 ft 424 kts 185°
2026-05-07 18:45 52.40146 -2.77609 23927 ft 427 kts 184°
2026-05-07 18:45 52.37191 -2.77865 24327 ft 429 kts 184°
2026-05-07 18:45 52.34193 -2.78124 24725 ft 432 kts 184°
2026-05-07 18:45 52.31218 -2.78380 25111 ft 434 kts 184°
2026-05-07 18:46 52.28197 -2.78639 25493 ft 436 kts 184°
2026-05-07 18:46 52.25189 -2.78896 25846 ft 438 kts 184°
2026-05-07 18:46 52.22147 -2.79156 26188 ft 440 kts 185°
2026-05-07 18:46 52.19090 -2.79417 26522 ft 442 kts 185°
2026-05-07 18:47 52.16012 -2.79680 26831 ft 444 kts 185°
2026-05-07 18:47 52.12941 -2.79941 27134 ft 445 kts 185°
2026-05-07 18:47 52.09845 -2.80203 27534 ft 445 kts 185°
2026-05-07 18:47 52.06810 -2.80461 27963 ft 443 kts 185°
2026-05-07 18:48 52.03736 -2.80722 28365 ft 442 kts 185°
2026-05-07 18:48 52.00665 -2.80983 28737 ft 442 kts 185°
2026-05-07 18:48 51.97638 -2.81240 29109 ft 441 kts 185°
2026-05-07 18:48 51.94591 -2.81498 29504 ft 440 kts 185°
2026-05-07 18:49 51.91547 -2.81755 29895 ft 438 kts 185°
2026-05-07 18:49 51.88522 -2.82010 30273 ft 437 kts 185°
2026-05-07 18:49 51.85497 -2.82342 30642 ft 436 kts 187°
2026-05-07 18:49 51.82505 -2.82920 30998 ft 434 kts 189°
2026-05-07 18:50 51.79539 -2.83566 31351 ft 433 kts 189°
2026-05-07 18:50 51.76539 -2.84206 31693 ft 432 kts 189°
2026-05-07 18:50 51.73571 -2.84837 32022 ft 431 kts 189°
2026-05-07 18:50 51.70615 -2.85466 32295 ft 432 kts 189°
2026-05-07 18:51 51.67642 -2.86099 32426 ft 435 kts 189°
2026-05-07 18:51 51.64633 -2.86740 32609 ft 436 kts 189°
2026-05-07 18:51 51.61622 -2.87380 32877 ft 436 kts 189°
2026-05-07 18:51 51.58640 -2.88014 33168 ft 434 kts 189°
2026-05-07 18:52 51.55672 -2.88644 33443 ft 433 kts 189°
2026-05-07 18:52 51.52700 -2.89275 33691 ft 432 kts 189°
2026-05-07 18:52 51.49712 -2.89908 33935 ft 431 kts 189°
2026-05-07 18:52 51.46784 -2.90529 34173 ft 430 kts 189°
2026-05-07 18:53 51.43835 -2.91152 34392 ft 430 kts 189°
2026-05-07 18:53 51.40861 -2.91780 34577 ft 430 kts 189°
2026-05-07 18:53 51.37912 -2.92402 34747 ft 430 kts 189°
2026-05-07 18:53 51.34961 -2.93023 34899 ft 430 kts 189°
2026-05-07 18:54 51.31982 -2.93649 35041 ft 431 kts 189°
2026-05-07 18:54 51.29031 -2.94269 35165 ft 430 kts 189°
2026-05-07 18:54 51.26098 -2.94883 35262 ft 431 kts 189°
2026-05-07 18:55 51.20123 -2.96135 35408 ft 433 kts 189°
2026-05-07 18:55 51.14160 -2.97381 35546 ft 435 kts 189°
2026-05-07 18:56 51.08181 -2.98627 35700 ft 435 kts 189°
2026-05-07 18:56 51.02210 -2.99866 35841 ft 436 kts 189°
2026-05-07 18:57 50.96187 -3.01111 35969 ft 437 kts 189°
2026-05-07 18:57 50.90175 -3.02352 35985 ft 438 kts 189°
2026-05-07 18:58 50.84161 -3.03590 35988 ft 438 kts 189°
2026-05-07 18:58 50.78128 -3.04829 35989 ft 437 kts 189°
2026-05-07 18:59 50.72145 -3.06056 35988 ft 437 kts 189°
2026-05-07 18:59 50.66151 -3.07281 35987 ft 436 kts 189°
2026-05-07 19:00 50.60152 -3.08504 35984 ft 437 kts 189°
2026-05-07 19:00 50.54104 -3.09733 35985 ft 438 kts 189°
2026-05-07 19:01 50.48085 -3.10953 35985 ft 438 kts 189°
2026-05-07 19:01 50.42132 -3.12726 35982 ft 437 kts 197°
2026-05-07 19:02 50.36471 -3.15961 35981 ft 435 kts 206°
2026-05-07 19:02 50.31216 -3.20597 35977 ft 434 kts 214°
2026-05-07 19:03 50.26427 -3.26274 35974 ft 434 kts 218°
2026-05-07 19:03 50.21697 -3.32072 35972 ft 434 kts 218°
2026-05-07 19:04 50.16963 -3.37853 35972 ft 434 kts 218°
2026-05-07 19:04 50.12224 -3.43624 35971 ft 435 kts 218°
2026-05-07 19:05 50.07474 -3.49391 35971 ft 435 kts 218°
2026-05-07 19:05 50.02701 -3.55171 35967 ft 436 kts 218°
2026-05-07 19:06 49.97939 -3.60922 35969 ft 435 kts 218°
2026-05-07 19:06 49.90772 -3.69549 35963 ft 435 kts 218°
2026-05-07 19:07 49.86013 -3.75260 35963 ft 435 kts 217°
2026-05-07 19:07 49.81249 -3.80961 35963 ft 435 kts 218°
2026-05-07 19:08 49.76477 -3.86657 35962 ft 435 kts 218°
2026-05-07 19:08 49.71688 -3.92359 35962 ft 435 kts 218°
2026-05-07 19:09 49.66748 -3.97729 35960 ft 436 kts 212°
2026-05-07 19:09 49.61496 -4.02241 35958 ft 436 kts 206°
2026-05-07 19:10 49.55960 -4.05938 35949 ft 437 kts 203°
2026-05-07 19:10 49.50327 -4.09509 35949 ft 437 kts 204°
2026-05-07 19:11 49.44722 -4.13058 35948 ft 437 kts 203°
2026-05-07 19:11 49.39126 -4.16592 35954 ft 438 kts 203°
2026-05-07 19:12 49.33500 -4.20134 35951 ft 438 kts 203°
2026-05-07 19:12 49.27889 -4.23654 35948 ft 438 kts 204°
2026-05-07 19:13 49.22277 -4.27168 35943 ft 437 kts 204°
2026-05-07 19:13 49.16627 -4.30696 35935 ft 438 kts 204°
2026-05-07 19:14 49.11005 -4.34199 35941 ft 438 kts 204°
2026-05-07 19:14 49.05384 -4.37692 35946 ft 438 kts 204°
2026-05-07 19:15 48.99780 -4.41165 35941 ft 439 kts 204°
2026-05-07 19:15 48.94100 -4.44680 35941 ft 440 kts 204°
2026-05-07 19:16 48.88463 -4.48157 35948 ft 440 kts 204°
2026-05-07 19:16 48.82805 -4.51638 35957 ft 439 kts 204°
2026-05-07 19:17 48.77186 -4.55087 35962 ft 439 kts 204°
2026-05-07 19:17 48.71506 -4.58566 35964 ft 440 kts 204°
2026-05-07 19:18 48.65850 -4.62019 35971 ft 440 kts 204°
2026-05-07 19:18 48.60222 -4.65451 35961 ft 440 kts 203°
2026-05-07 19:19 48.54534 -4.68908 35962 ft 440 kts 203°
2026-05-07 19:19 48.48881 -4.72337 35967 ft 441 kts 204°
2026-05-07 19:20 48.43215 -4.75766 35965 ft 441 kts 204°
2026-05-07 19:20 48.37521 -4.79202 35966 ft 441 kts 204°
2026-05-07 19:21 48.31851 -4.82616 35969 ft 441 kts 204°
2026-05-07 19:21 48.26191 -4.86016 35966 ft 441 kts 204°
2026-05-07 19:22 48.20493 -4.89430 35767 ft 439 kts 204°
2026-05-07 19:22 48.14833 -4.92814 35905 ft 441 kts 204°
2026-05-07 19:23 48.09130 -4.96216 35953 ft 443 kts 204°
2026-05-07 19:23 48.03437 -4.99603 35970 ft 444 kts 204°
2026-05-07 19:24 47.97715 -5.03000 35975 ft 445 kts 204°
2026-05-07 19:24 47.91977 -5.06396 35975 ft 445 kts 204°
2026-05-07 19:25 47.86224 -5.09793 35977 ft 445 kts 204°
2026-05-07 19:25 47.80480 -5.13178 35978 ft 445 kts 204°
2026-05-07 19:26 47.74760 -5.16541 35976 ft 445 kts 204°
2026-05-07 19:26 47.69021 -5.19906 35975 ft 445 kts 205°
2026-05-07 19:27 47.63270 -5.23272 35967 ft 446 kts 204°
2026-05-07 19:27 47.57524 -5.26625 35969 ft 446 kts 205°
2026-05-07 19:28 47.51761 -5.29980 35958 ft 446 kts 205°
2026-05-07 19:28 47.45970 -5.33346 35977 ft 447 kts 205°
2026-05-07 19:29 47.40213 -5.36683 35974 ft 447 kts 205°
2026-05-07 19:29 47.34444 -5.40020 35968 ft 447 kts 205°
2026-05-07 19:30 47.28671 -5.43350 35972 ft 447 kts 205°
2026-05-07 19:30 47.22893 -5.46673 35966 ft 448 kts 205°
2026-05-07 19:31 47.17097 -5.50001 35979 ft 449 kts 205°
2026-05-07 19:31 47.11263 -5.53343 35962 ft 449 kts 205°
2026-05-07 19:32 47.05474 -5.56651 35967 ft 448 kts 205°
2026-05-07 19:32 46.99701 -5.59941 35969 ft 448 kts 206°
2026-05-07 19:33 46.93895 -5.63246 35962 ft 449 kts 206°
2026-05-07 19:33 46.88087 -5.66542 35959 ft 450 kts 205°
2026-05-07 19:34 46.82252 -5.69845 35961 ft 451 kts 205°
2026-05-07 19:34 46.76415 -5.73143 35963 ft 450 kts 205°
2026-05-07 19:35 46.70576 -5.76431 35960 ft 450 kts 205°
2026-05-07 19:35 46.64790 -5.79683 35960 ft 450 kts 205°
2026-05-07 19:36 46.58985 -5.83062 35963 ft 448 kts 208°
2026-05-07 19:36 46.53272 -5.86736 35963 ft 449 kts 208°
2026-05-07 19:37 46.47584 -5.90374 35956 ft 449 kts 208°
2026-05-07 19:37 46.41893 -5.94010 35959 ft 449 kts 208°
2026-05-07 19:38 46.36193 -5.97643 35967 ft 450 kts 208°
2026-05-07 19:38 46.30463 -6.01287 35960 ft 450 kts 208°
2026-05-07 19:39 46.24782 -6.04890 35951 ft 449 kts 208°
2026-05-07 19:39 46.19056 -6.08515 35960 ft 449 kts 208°
2026-05-07 19:40 46.13345 -6.12121 35960 ft 449 kts 208°
2026-05-07 19:40 46.07649 -6.15710 35953 ft 450 kts 208°
2026-05-07 19:41 46.01906 -6.19322 35940 ft 451 kts 208°
2026-05-07 19:41 45.96207 -6.22895 35936 ft 450 kts 208°
2026-05-07 19:42 45.90444 -6.26501 35934 ft 450 kts 208°
2026-05-07 19:42 45.84707 -6.30086 35936 ft 451 kts 208°
2026-05-07 19:43 45.78986 -6.33650 35928 ft 450 kts 208°
2026-05-07 19:43 45.73260 -6.37210 35931 ft 451 kts 208°
2026-05-07 19:44 45.67526 -6.40765 35928 ft 451 kts 209°
2026-05-07 19:44 45.61794 -6.44314 35925 ft 451 kts 208°
2026-05-07 19:45 45.56057 -6.47855 35924 ft 451 kts 209°
2026-05-07 19:45 45.50295 -6.51406 35925 ft 451 kts 209°
2026-05-07 19:46 45.44566 -6.54927 35921 ft 450 kts 209°
2026-05-07 19:46 45.38863 -6.58426 35918 ft 451 kts 209°
2026-05-07 19:47 45.33098 -6.61953 35919 ft 449 kts 209°
2026-05-07 19:47 45.27386 -6.65442 35924 ft 450 kts 208°
2026-05-07 19:48 45.21653 -6.68935 35916 ft 451 kts 208°
2026-05-07 19:48 45.15914 -6.72423 35911 ft 450 kts 208°
2026-05-07 19:49 45.10178 -6.75904 35915 ft 449 kts 208°
2026-05-07 19:49 45.04453 -6.79368 35912 ft 449 kts 208°
2026-05-07 19:50 44.98706 -6.82840 35911 ft 449 kts 208°
2026-05-07 19:50 44.92971 -6.86294 35911 ft 449 kts 208°
2026-05-07 19:51 44.87252 -6.89733 35910 ft 448 kts 208°
2026-05-07 19:51 44.81403 -6.92816 35904 ft 451 kts 203°
2026-05-07 19:52 44.75389 -6.95266 35907 ft 452 kts 202°
2026-05-07 19:52 44.69364 -6.97698 35903 ft 453 kts 202°
2026-05-07 19:53 44.63329 -7.00130 35900 ft 453 kts 202°
2026-05-07 19:53 44.57259 -7.02569 35896 ft 452 kts 202°
2026-05-07 19:54 44.51243 -7.04981 35890 ft 450 kts 202°
2026-05-07 19:54 44.45245 -7.07381 35892 ft 449 kts 202°
2026-05-07 19:55 44.39270 -7.09766 35885 ft 448 kts 202°
2026-05-07 19:55 44.33270 -7.12156 35884 ft 448 kts 202°
2026-05-07 19:56 44.27339 -7.14514 35882 ft 448 kts 202°
2026-05-07 19:56 44.21328 -7.16899 35874 ft 446 kts 202°
2026-05-07 19:57 44.15369 -7.19257 35871 ft 446 kts 202°
2026-05-07 19:57 44.09421 -7.21606 35869 ft 445 kts 202°
2026-05-07 19:58 44.03507 -7.23938 35867 ft 445 kts 202°
2026-05-07 19:58 43.97567 -7.26275 35865 ft 444 kts 202°
2026-05-07 19:59 43.91637 -7.28604 35862 ft 444 kts 202°
2026-05-07 19:59 43.85725 -7.30919 35864 ft 443 kts 202°
2026-05-07 20:00 43.79902 -7.33197 35861 ft 444 kts 202°
2026-05-07 20:00 43.73960 -7.35515 35859 ft 442 kts 202°
2026-05-07 20:01 43.68055 -7.37813 35864 ft 442 kts 202°
2026-05-07 20:01 43.62178 -7.40096 35863 ft 442 kts 202°
2026-05-07 20:02 43.56268 -7.42390 35863 ft 439 kts 202°
2026-05-07 20:02 43.50412 -7.44657 35864 ft 440 kts 202°
2026-05-07 20:03 43.44503 -7.46941 35862 ft 440 kts 202°
2026-05-07 20:03 43.38659 -7.49191 35862 ft 439 kts 202°
2026-05-07 20:04 43.32781 -7.51452 35857 ft 438 kts 202°
2026-05-07 20:04 43.26941 -7.53694 35859 ft 437 kts 202°
2026-05-07 20:05 43.21100 -7.55931 35861 ft 437 kts 202°
2026-05-07 20:05 43.15280 -7.58158 35859 ft 437 kts 202°
2026-05-07 20:06 43.09415 -7.60396 35858 ft 436 kts 202°
2026-05-07 20:06 43.03607 -7.62608 35862 ft 434 kts 202°
2026-05-07 20:07 42.97827 -7.64805 35873 ft 434 kts 202°
2026-05-07 20:07 42.92020 -7.67008 35874 ft 432 kts 201°
2026-05-07 20:08 42.86222 -7.69206 35870 ft 432 kts 201°
2026-05-07 20:08 42.80450 -7.71384 35871 ft 433 kts 201°
2026-05-07 20:09 42.74674 -7.73564 35871 ft 433 kts 201°
2026-05-07 20:10 42.66000 -7.76826 35874 ft 432 kts 201°
2026-05-07 20:10 42.60192 -7.79010 35874 ft 431 kts 201°
2026-05-07 20:11 42.54438 -7.81163 35878 ft 431 kts 201°
2026-05-07 20:11 42.48688 -7.83313 35878 ft 430 kts 201°
2026-05-07 20:12 42.42948 -7.85454 35880 ft 430 kts 201°
2026-05-07 20:12 42.37178 -7.87604 35881 ft 430 kts 201°
2026-05-07 20:13 42.32511 -7.89341 35880 ft 430 kts 201°
2026-05-07 20:13 42.26786 -7.91465 35883 ft 430 kts 201°
2026-05-07 20:14 42.21017 -7.93602 35879 ft 429 kts 201°
2026-05-07 20:14 42.15273 -7.95725 35875 ft 430 kts 200°
2026-05-07 20:15 42.10491 -7.97493 35873 ft 428 kts 200°
2026-05-07 20:15 42.03796 -7.99958 35874 ft 427 kts 200°
2026-05-07 20:16 41.98068 -8.02062 35870 ft 426 kts 200°
2026-05-07 20:16 41.92386 -8.04146 35872 ft 427 kts 200°
2026-05-07 20:17 41.86651 -8.06245 35873 ft 426 kts 200°
2026-05-07 20:17 41.80947 -8.08326 35875 ft 426 kts 200°
2026-05-07 20:18 41.75207 -8.10222 35875 ft 426 kts 199°
2026-05-07 20:18 41.69418 -8.12087 35878 ft 426 kts 198°
2026-05-07 20:19 41.63710 -8.13931 35882 ft 424 kts 198°
2026-05-07 20:19 41.57995 -8.15775 35886 ft 423 kts 199°
2026-05-07 20:20 41.52277 -8.17623 35888 ft 423 kts 199°
2026-05-07 20:20 41.46567 -8.19464 35892 ft 423 kts 198°
2026-05-07 20:21 41.40854 -8.21304 35892 ft 422 kts 198°
2026-05-07 20:21 41.35182 -8.23127 35889 ft 423 kts 198°
2026-05-07 20:22 41.29449 -8.24967 35897 ft 422 kts 198°
2026-05-07 20:22 41.23750 -8.26791 35896 ft 421 kts 198°
2026-05-07 20:23 41.18105 -8.28596 35898 ft 421 kts 198°
2026-05-07 20:23 41.12391 -8.30419 35900 ft 420 kts 198°
2026-05-07 20:24 41.06729 -8.32223 35900 ft 419 kts 198°
2026-05-07 20:24 41.01109 -8.34009 35901 ft 419 kts 198°
2026-05-07 20:25 40.95439 -8.35804 35900 ft 418 kts 198°
2026-05-07 20:25 40.89788 -8.37594 35897 ft 417 kts 198°
2026-05-07 20:26 40.84152 -8.39375 35896 ft 418 kts 198°
2026-05-07 20:26 40.78484 -8.41163 35892 ft 418 kts 198°
2026-05-07 20:27 40.72834 -8.42846 35892 ft 419 kts 195°
2026-05-07 20:27 40.67062 -8.43910 35891 ft 421 kts 191°
2026-05-07 20:28 40.61269 -8.44803 35733 ft 421 kts 191°
2026-05-07 20:28 40.58345 -8.45255 35470 ft 421 kts 191°
2026-05-07 20:28 40.55459 -8.45700 35210 ft 421 kts 191°
2026-05-07 20:28 40.52565 -8.46144 34949 ft 422 kts 191°
2026-05-07 20:29 40.49610 -8.46597 34541 ft 424 kts 190°
2026-05-07 20:29 40.46688 -8.47043 33938 ft 426 kts 191°
2026-05-07 20:29 40.43754 -8.47490 33219 ft 427 kts 191°
2026-05-07 20:29 40.40818 -8.47938 32463 ft 430 kts 190°
2026-05-07 20:30 40.37832 -8.48393 31676 ft 430 kts 190°
2026-05-07 20:30 40.34905 -8.48838 30896 ft 430 kts 190°
2026-05-07 20:30 40.31913 -8.49291 30079 ft 430 kts 189°
2026-05-07 20:30 40.28985 -8.49735 29275 ft 430 kts 189°
2026-05-07 20:31 40.26009 -8.50185 28424 ft 431 kts 189°
2026-05-07 20:31 40.23061 -8.50630 27546 ft 432 kts 188°
2026-05-07 20:31 40.20062 -8.51083 26863 ft 428 kts 188°
2026-05-07 20:31 40.17146 -8.51521 26335 ft 424 kts 188°
2026-05-07 20:32 40.14221 -8.51959 25826 ft 419 kts 188°
2026-05-07 20:32 40.11330 -8.52469 25583 ft 421 kts 194°
2026-05-07 20:32 40.08651 -8.53878 25315 ft 420 kts 209°
2026-05-07 20:32 40.06080 -8.55755 25055 ft 419 kts 210°
2026-05-07 20:33 40.03575 -8.57580 24802 ft 418 kts 209°
2026-05-07 20:33 40.01009 -8.59425 24547 ft 416 kts 209°
2026-05-07 20:33 39.98466 -8.61227 24285 ft 415 kts 208°
2026-05-07 20:33 39.95960 -8.62985 24036 ft 414 kts 208°
2026-05-07 20:34 39.93422 -8.64756 23780 ft 412 kts 208°
2026-05-07 20:34 39.90899 -8.66508 23524 ft 410 kts 207°
2026-05-07 20:34 39.88409 -8.68234 23270 ft 408 kts 207°
2026-05-07 20:34 39.85885 -8.69978 23023 ft 406 kts 207°
2026-05-07 20:35 39.83418 -8.71680 22786 ft 405 kts 207°
2026-05-07 20:35 39.80915 -8.73405 22552 ft 403 kts 207°
2026-05-07 20:35 39.78453 -8.75101 22314 ft 403 kts 207°
2026-05-07 20:35 39.75984 -8.76797 22075 ft 401 kts 207°
2026-05-07 20:36 39.73524 -8.78488 21837 ft 400 kts 207°
2026-05-07 20:36 39.71071 -8.80172 21605 ft 399 kts 207°
2026-05-07 20:36 39.68609 -8.81860 21369 ft 397 kts 207°
2026-05-07 20:36 39.66192 -8.83516 21136 ft 396 kts 207°
2026-05-07 20:37 39.63777 -8.85168 20898 ft 394 kts 207°
2026-05-07 20:37 39.61362 -8.86818 20664 ft 393 kts 207°
2026-05-07 20:37 39.58940 -8.88473 20420 ft 392 kts 207°
2026-05-07 20:37 39.56517 -8.90128 20190 ft 390 kts 207°
2026-05-07 20:38 39.54159 -8.91737 19955 ft 388 kts 207°
2026-05-07 20:38 39.51760 -8.93373 19710 ft 386 kts 206°
2026-05-07 20:38 39.49408 -8.94975 19475 ft 385 kts 206°
2026-05-07 20:38 39.47055 -8.96576 19239 ft 383 kts 206°
2026-05-07 20:39 39.44680 -8.98192 18999 ft 381 kts 206°
2026-05-07 20:39 39.42341 -8.99783 18758 ft 381 kts 206°
2026-05-07 20:39 39.40007 -9.01368 18519 ft 379 kts 206°
2026-05-07 20:39 39.37664 -9.02957 18277 ft 377 kts 206°
2026-05-07 20:40 39.35350 -9.04527 18036 ft 377 kts 206°
2026-05-07 20:40 39.33047 -9.06086 17795 ft 375 kts 206°
2026-05-07 20:40 39.30728 -9.07657 17554 ft 373 kts 206°
2026-05-07 20:40 39.28447 -9.09199 17309 ft 372 kts 206°
2026-05-07 20:41 39.26158 -9.10747 17065 ft 371 kts 206°
2026-05-07 20:41 39.23896 -9.12276 16822 ft 369 kts 206°
2026-05-07 20:41 39.21617 -9.13813 16582 ft 368 kts 206°
2026-05-07 20:41 39.19345 -9.15345 16341 ft 367 kts 206°
2026-05-07 20:42 39.17092 -9.16865 16099 ft 365 kts 206°
2026-05-07 20:42 39.14851 -9.18376 15858 ft 363 kts 206°
2026-05-07 20:42 39.12633 -9.19869 15614 ft 362 kts 206°
2026-05-07 20:42 39.10408 -9.21365 15370 ft 362 kts 206°
2026-05-07 20:43 39.08159 -9.22877 15123 ft 362 kts 206°
2026-05-07 20:43 39.05947 -9.24364 14880 ft 361 kts 206°
2026-05-07 20:43 39.03712 -9.25864 14630 ft 360 kts 206°
2026-05-07 20:43 39.01504 -9.27345 14377 ft 360 kts 206°
2026-05-07 20:44 38.99300 -9.28823 14127 ft 357 kts 206°
2026-05-07 20:44 38.97102 -9.30294 13822 ft 356 kts 206°
2026-05-07 20:44 38.94906 -9.31765 13398 ft 352 kts 206°
2026-05-07 20:44 38.92769 -9.33193 12817 ft 350 kts 206°
2026-05-07 20:45 38.90615 -9.34633 12229 ft 348 kts 206°
2026-05-07 20:45 38.88474 -9.36062 11804 ft 341 kts 206°
2026-05-07 20:45 38.86402 -9.37446 11538 ft 330 kts 206°
2026-05-07 20:45 38.84386 -9.38791 11328 ft 318 kts 206°
2026-05-07 20:46 38.82474 -9.40066 11129 ft 307 kts 206°
2026-05-07 20:46 38.80611 -9.41308 10936 ft 297 kts 206°
2026-05-07 20:46 38.78818 -9.42501 10752 ft 287 kts 206°
2026-05-07 20:46 38.77056 -9.43674 10568 ft 277 kts 206°
2026-05-07 20:47 38.75364 -9.44796 10286 ft 272 kts 205°
2026-05-07 20:47 38.73597 -9.45519 9868 ft 270 kts 181°
2026-05-07 20:47 38.71803 -9.45001 9464 ft 270 kts 155°
2026-05-07 20:47 38.70243 -9.43660 9104 ft 270 kts 146°
2026-05-07 20:48 38.68732 -9.42208 8723 ft 268 kts 146°
2026-05-07 20:48 38.67244 -9.40805 8331 ft 268 kts 146°
2026-05-07 20:48 38.65744 -9.39420 7876 ft 264 kts 147°
2026-05-07 20:48 38.64260 -9.38068 7213 ft 264 kts 147°
2026-05-07 20:49 38.62765 -9.36718 6527 ft 262 kts 147°
2026-05-07 20:49 38.61302 -9.35402 5851 ft 260 kts 147°
2026-05-07 20:49 38.59819 -9.34072 5117 ft 261 kts 147°
2026-05-07 20:49 38.58360 -9.32760 4598 ft 253 kts 145°
2026-05-07 20:50 38.57190 -9.31164 4316 ft 245 kts 115°
2026-05-07 20:50 38.56997 -9.29060 4114 ft 238 kts 76°
2026-05-07 20:50 38.57630 -9.27190 4012 ft 226 kts 61°
2026-05-07 20:50 38.58378 -9.25491 3997 ft 211 kts 61°
2026-05-07 20:51 38.59205 -9.24049 4019 ft 198 kts 41°
2026-05-07 20:51 38.60341 -9.23084 3768 ft 194 kts 26°
2026-05-07 20:51 38.61560 -9.22390 3514 ft 191 kts 20°
2026-05-07 20:51 38.62791 -9.21768 3257 ft 188 kts 19°
2026-05-07 20:52 38.63983 -9.21162 3006 ft 183 kts 20°
2026-05-07 20:52 38.65150 -9.20551 2760 ft 178 kts 20°
2026-05-07 20:52 38.66264 -9.19954 2541 ft 165 kts 20°
2026-05-07 20:52 38.67274 -9.19408 2317 ft 150 kts 19°
2026-05-07 20:53 38.68183 -9.18917 2110 ft 140 kts 19°
2026-05-07 20:53 38.69087 -9.18434 1938 ft 139 kts 18°
2026-05-07 20:53 38.69984 -9.17953 1762 ft 139 kts 18°
2026-05-07 20:53 38.70874 -9.17484 1575 ft 139 kts 19°
2026-05-07 20:54 38.71756 -9.16998 1384 ft 138 kts 19°
2026-05-07 20:54 38.72648 -9.16521 1193 ft 138 kts 19°
2026-05-07 20:54 38.73534 -9.16043 1032 ft 138 kts 20°
2026-05-07 20:54 38.74425 -9.15579 820 ft 137 kts 20°
2026-05-07 20:55 38.75297 -9.15100 645 ft 137 kts 19°
2026-05-07 20:55 38.76168 -9.14632 470 ft 136 kts 19°
2026-05-07 20:55 38.77038 -9.14165 348 ft 128 kts 20°
2026-05-07 20:55 38.77716 -9.13818 361 ft 79 kts 22°
2026-05-07 20:56 38.78071 -9.13627 362 ft 36 kts 24°
2026-05-07 20:56 38.78253 -9.13512 361 ft 25 kts 39°
2026-05-07 20:56 38.78351 -9.13374 356 ft 14 kts 45°
2026-05-07 20:56 38.78374 -9.13294 351 ft 11 kts 111°
2026-05-07 20:57 38.78302 -9.13273 348 ft 13 kts 205°
2026-05-07 20:57 38.78215 -9.13320 348 ft 13 kts 204°
2026-05-07 20:57 38.78123 -9.13369 347 ft 14 kts 205°
2026-05-07 20:57 38.78042 -9.13413 346 ft 10 kts 192°
2026-05-07 20:58 38.77957 -9.13398 343 ft 14 kts 170°
2026-05-07 20:58 38.77848 -9.13372 339 ft 17 kts 168°
2026-05-07 20:58 38.77726 -9.13337 335 ft 17 kts 168°
2026-05-07 20:58 38.77616 -9.13320 332 ft 15 kts 181°
2026-05-07 20:59 38.77545 -9.13312 330 ft 11 kts 170°
2026-05-07 20:59 38.77461 -9.13289 329 ft 11 kts 168°
2026-05-07 20:59 38.77415 -9.13271 329 ft 6 kts 138°
2026-05-07 20:59 38.77416 -9.13216 327 ft 7 kts 77°
2026-05-07 21:00 38.77425 -9.13163 325 ft 4 kts 78°
2026-05-07 21:00 38.77428 -9.13143 324 ft 0 kts 79°